ARIANE 2 DEB

基本信息
目录编号:
27030
目录名称:
ARIANE 2 DEB
国际标识:
1989-006K
轨道中心:
EARTH
物体状态:
在轨
发射日期:
1989-01-27 UTC
轨道信息
数据来源: 国际轨道数据
星历时间: 2026-06-27T22:57:28+0800
半长轴: 23728.656km
偏心率: 0.7105246
轨道倾角: 8.601°
近地点辐角: 318.672°
升交点赤经: 314.681°
平近点角: 5.247°
近地点: 490.725km
远地点: 34210.313km
周期: 606.275分钟
每日圈数: 2.375161
详细信息
发射场:
FRGUI
轨道高度:
LEO
数据来源:
AOE Integration Group
参考系:
TEME
时间系统:
UTC
历元类型:
SGP4
2D轨道图
3D轨道图
轨道高度分析图
轨道倾角分析图
轨道综合分析图
查看轨道综合分析图